DW4892 Weather Reports


Display with metric or nautical units.
time (UTC)temp
F
wind
direction
speed
MPH
gust
MPH
rain 1hr
in
rain 24hr
in
rain mn
in
humidity
%
barometer
mb
20260507191526 65 300 1.0 6.0 0.00 0.59 0.01 34 1013.3
20260507190024 64 238 2.0 8.0 0.00 0.59 0.01 34 1013.9
20260507184557 64 194 2.0 9.0 0.00 0.64 0.01 37 1014.1
20260507183026 62 252 2.0 7.0 0.00 0.64 0.01 37 1014.4
20260507181525 61 161 1.0 9.0 0.00 0.64 0.01 36 1014.7
20260507180020 61 165 1.0 6.0 0.00 0.64 0.01 39 1014.9
20260507174518 59 174 1.0 6.0 0.00 0.73 0.01 40 1014.9
20260507173110 58 300 1.0 4.0 0.00 0.73 0.01 40 1015.3
20260507171526 58 180 2.0 5.0 0.00 0.73 0.01 38 1015.5
20260507170021 56 204 1.0 8.0 0.00 0.73 0.01 43 1015.8
20260507164523 57 207 1.0 4.0 0.00 0.73 0.01 46 1016.2
20260507163032 56 232 1.0 4.0 0.00 0.73 0.01 42 1016.3
20260507161533 54 313 2.0 6.0 0.00 0.73 0.01 44 1016.6
20260507160028 53 167 1.0 6.0 0.00 0.73 0.01 45 1016.9
20260507154518 52 201 2.0 6.0 0.00 0.73 0.01 48 1017.0
20260507153058 50 218 2.0 4.0 0.00 0.73 0.01 49 1017.2
20260507151526 49 158 1.0 5.0 0.00 0.73 0.01 47 1017.1
20260507150022 47 176 1.0 4.0 0.00 0.73 0.01 51 1017.3
20260507144516 46 172 1.0 6.0 0.00 0.73 0.01 48 1017.3
20260507143030 45 225 1.0 5.0 0.01 0.73 0.01 50 1017.5
20260507141531 43 200 1.0 5.0 0.01 0.73 0.01 52 1017.4
20260507140023 42 238 1.0 4.0 0.01 0.73 0.01 52 1017.5
20260507134558 42 174 1.0 3.0 0.01 0.73 0.01 51 1017.5
20260507133031 41 161 1.0 4.0 0.00 0.72 0.00 51 1017.4
20260507131525 39 180 1.0 3.0 0.00 0.72 0.00 55 1017.6
20260507130020 38 190 1.0 3.0 0.00 0.72 0.00 56 1017.7
20260507124520 37 238 1.0 3.0 0.00 0.72 0.00 56 1017.5
20260507123030 36 175 1.0 3.0 0.00 0.72 0.00 57 1017.2
20260507121526 36 190 1.0 5.0 0.00 0.72 0.00 57 1017.1
20260507120019 37 159 1.0 4.0 0.00 0.72 0.00 55 1017.2
20260507114553 36 180 1.0 3.0 0.00 0.72 0.00 56 1017.1
20260507113055 36 194 2.0 4.0 0.00 0.72 0.00 56 1017.3
20260507111528 35 175 1.0 4.0 0.00 0.72 0.00 59 1017.2
20260507110019 34 204 0.0 3.0 0.00 0.72 0.00 62 1017.4
20260507104516 35 132 1.0 3.0 0.00 0.72 0.00 61 1017.5
20260507103032 34 171 1.0 3.0 0.00 0.72 0.00 63 1017.4
20260507101525 35 200 1.0 3.0 0.00 0.72 0.00 60 1017.5
20260507100023 35 221 1.0 5.0 0.00 0.72 0.00 61 1017.5
20260507094517 34 174 2.0 6.0 0.00 0.72 0.00 64 1017.7
20260507093015 33 147 1.0 4.0 0.00 0.72 0.00 66 1017.7
20260507091535 33 171 1.0 4.0 0.00 0.72 0.00 67 1017.6
20260507090024 33 229 1.0 4.0 0.00 0.72 0.00 68 1017.7
20260507084525 33 195 1.0 4.0 0.00 0.72 0.00 69 1017.9
20260507083014 33 156 1.0 4.0 0.00 0.72 0.00 70 1018.1
20260507081509 33 222 1.0 3.0 0.00 0.72 0.00 73 1018.1
20260507080030 33 173 1.0 4.0 0.00 0.72 0.00 74 1017.9
20260507074523 32 175 1.0 4.0 0.00 0.72 0.00 77 1018.3
20260507073021 32 190 1.0 4.0 0.00 0.72 0.00 77 1018.6
20260507071516 32 167 1.0 4.0 0.00 0.72 0.00 78 1018.4
20260507070034 32 196 2.0 4.0 0.00 0.72 0.00 80 1018.4
20260507064531 31 137 0.0 2.0 0.00 0.72 0.00 83 1018.6
20260507063027 31 203 0.0 3.0 0.00 0.72 0.00 85 1018.7
20260507061518 31 185 0.0 2.0 0.00 0.72 0.00 86 1018.4
20260507054526 31 180 1.0 2.0 0.00 0.72 0.72 86 1018.5
20260507053025 32 180 0.0 2.0 0.00 0.72 0.72 85 1018.5
20260507051520 32 180 0.0 2.0 0.00 0.72 0.72 85 1018.4
20260507050023 32 197 0.0 3.0 0.00 0.72 0.72 85 1018.4
20260507044511 32 190 0.0 3.0 0.00 0.72 0.72 85 1018.5
20260507043028 32 213 0.0 2.0 0.00 0.72 0.72 86 1018.4
20260507041521 32 190 0.0 3.0 0.00 0.72 0.72 87 1018.2
20260507040020 32 190 0.0 2.0 0.00 0.72 0.72 87 1018.1
20260507034521 32 229 0.0 2.0 0.00 0.72 0.72 88 1018.2
20260507033028 33 180 0.0 3.0 0.00 0.72 0.72 87 1018.2
20260507031525 33 165 0.0 2.0 0.00 0.72 0.72 87 1018.1
20260507030021 33 196 0.0 1.0 0.00 0.72 0.72 87 1018.1
20260507024523 33 204 0.0 2.0 0.00 0.72 0.72 86 1017.8
20260507023030 33 214 0.0 3.0 0.00 0.72 0.72 85 1017.8
20260507021524 34 200 0.0 3.0 0.00 0.72 0.72 85 1017.7
20260507020036 34 190 0.0 1.0 0.00 0.72 0.72 85 1017.9
20260507014559 34 185 0.0 2.0 0.01 0.72 0.72 83 1018.0
20260507013026 35 180 0.0 2.0 0.01 0.72 0.72 81 1018.0
20260507011535 35 190 1.0 3.0 0.02 0.72 0.72 80 1018.2
20260507010018 35 176 1.0 3.0 0.03 0.72 0.72 80 1018.3
20260507004517 35 190 1.0 4.0 0.03 0.71 0.71 79 1018.4
20260507003030 36 196 1.0 4.0 0.04 0.71 0.71 78 1018.5
20260507001555 36 197 1.0 4.0 0.06 0.70 0.70 77 1018.3
20260507000025 36 185 2.0 4.0 0.07 0.69 0.69 77 1018.5
20260506234518 37 69 1.0 4.0 0.07 0.69 0.68 78 1018.3
20260506233011 37 129 1.0 4.0 0.08 0.67 0.66 77 1018.5
20260506231530 36 84 2.0 4.0 0.08 0.65 0.64 78 1018.7
20260506230033 36 62 2.0 4.0 0.08 0.63 0.62 82 1018.5
20260506224521 37 57 2.0 4.0 0.09 0.66 0.61 81 1018.7
20260506223017 35 190 1.0 2.0 0.08 0.63 0.57 81 1018.9
20260506221530 34 171 1.0 3.0 0.08 0.61 0.56 84 1019.0
20260506220034 35 160 2.0 4.0 0.09 0.59 0.54 85 1019.2
20260506214523 35 325 1.0 3.0 0.10 0.59 0.52 82 1019.4
20260506213018 35 38 1.0 4.0 0.11 0.56 0.50 84 1019.4
20260506211520 36 340 1.0 3.0 0.13 0.55 0.48 82 1019.5
20260506210046 35 343 1.0 3.0 0.16 0.52 0.45 83 1019.7
20260506204521 35 322 0.0 3.0 0.19 0.50 0.42 84 1019.7
20260506203020 35 50 1.0 3.0 0.19 0.46 0.38 85 1019.7
20260506201520 35 37 2.0 4.0 0.20 0.43 0.35 84 1019.9
20260506200014 36 55 1.0 5.0 0.15 0.37 0.28 83 1019.9
20260506194534 37 56 2.0 7.0 0.11 0.34 0.23 84 1019.9
20260506193033 36 74 2.0 7.0 0.08 0.30 0.19 86 1020.0